Chaleur - Miscou: Past 24 Hour Conditions

 

Stephenville Airport

04:30 AM NDT 22 August 2014
This table is a summary of hourly weather conditions for the past 24 hours.
Date / Time
(NDT)
Wind(knots) Conditions Visibility(km) Pressure(kPa) Air tempC) Relative humidity(%) Dew pointC)
22 August 2014
4:30 calm Mostly Cloudy 24 101.8 14 83 11
3:30 calm Mostly Cloudy 24 101.8 15 77 11
2:30 NNE 4 Mostly Cloudy 24 101.8 15 76 11
1:30 NNE 5 Mostly Cloudy 24 101.8 16 75 11
0:30 NE 4 Mostly Cloudy 24 101.8 15 76 11
21 August 2014
23:30 ENE 4 Clear 24 101.8 15 76 11
22:30 NNW 10 Mainly Clear 24 101.8 16 73 11
21:30 SE 4 Partly Cloudy 24 101.8 16 75 12
20:30 NE 9 Partly Cloudy 24 101.8 17 73 12
19:30 NNW 9 gust 17 Partly Cloudy 24 101.7 18 70 12
18:30 NNW 9 gust 18 Mainly Sunny 24 101.7 19 67 12
17:30 NNW 14 gust 23 Mainly Sunny 24 101.7 19 66 13
16:30 NNW 14 gust 24 Mainly Sunny 24 101.6 20 63 13
15:30 N 16 gust 23 Mainly Sunny 24 101.6 21 61 13
14:30 N 16 gust 24 Mainly Sunny 24 101.6 21 62 13
13:30 N 16 Mainly Sunny 24 101.5 21 63 14
12:30 N 12 Mainly Sunny 24 101.6 21 64 13
11:30 N 9 gust 17 Mostly Cloudy 24 101.6 19 71 14
10:30 NNW 11 Cloudy 24 101.6 18 76 14
9:30 N 8 Cloudy 24 101.5 18 76 13
8:30 NNW 12 Cloudy 24 101.5 17 79 13
7:30 NNW 12 Mostly Cloudy 24 101.5 17 79 13
6:30 calm Mostly Cloudy 24 101.4 16 79 13
5:30 N 4 Mainly Clear 24 101.3 16 79 13
4:30 calm Clear 24 101.3 17 80 13
 
Map of Atlantic - Newfoundland marine weather areas Southwestern Grand Banks - 44138 Banquereau - 44139 Tail of the Bank - 44140 Nickerson Bank - 44251 Northeast Burgeo Bank - 44255 Blanc-Sablon Airport Cap Whittle Chevery Natashquan Airport Heath Point Miscou Island Grand Étang Ingonish Beach North Mountain St.Paul Island J.A. Douglas McCurdy Sydney Airport Charlottetown Airport East Point North Cape Argentia Bonavista Burgeo Cape Race Corner Brook Daniel's Harbour Englee Ferolle Point La Scie Port aux Basques Rocky Harbour Sagona Island St. Anthony Airport St. John's Int'l Airport St. Lawrence Stephenville Airport Twillingate Winterland Wreckhouse Cartwright Airport Mary's Harbour Grates Cove Pool's Island Marticot Island Long Pond Îles de la Madeleine Airport
Legend: buoyBuoy land stationLand Station